Das Wetter in  D-61279 Heinzenberg / Taunus





Wetter Minimum- & Maximum-Werte im September 2016

Standort: Heinzenberg / Taunus - Höhe 297 m         8 24' 1" Ost 50 21' 51" Nord
(   3-stündige Aktualisierung    letzte Aktualisierung um 19:04 am 30.09.2016  )


Messgrösse

Minimum

Maximum

Durchschnitt

Temperatur West /
Luftfeuchte West
Anklicken für Monats-Diagramm

4,5 C

07:44
22.09.2016

31 %

15:26
13.09.2016

34,6 C

15:56
13.09.2016

91 %

09:51
05.09.2016

Temp

17,8 C

Feuchte

68 %

Temperatur Ost /
Luftfeuchte Ost
Anklicken für Monats-Diagramm

4,8 C

07:49
22.09.2016

--

--
--

34,9 C

15:56
13.09.2016

--

--
--

18,0 C

--

Luftdruck Anklicken für Monats-Diagramm

1008,1 hPa

16:13
15.09.2016

1028,1 hPa

00:14
28.09.2016

1018,0 hPa

Taupunkt

1,9 C

07:44
22.09.2016

18,0 C

11:26
13.09.2016

11,3 C

Windchill
( gefühlte Temperatur )

4,5 C

07:44
22.09.2016

34,6 C

15:56
13.09.2016

17,2 C

Windgeschwindigkeit /
Windrichtung
Anklicken für Monats-Diagramm

---

45,4 km/h / W-SW

14:24
28.09.2016

5,3 km/h
W-SW

Helligkeit /
Sonnenschein
Anklicken für Monats-Diagramm
Anklicken für Monats-Diagramm

Sonnenschein:

209:32 Stunden

Max: 11:25 Std am
07.09.2016

119 klux

13:41
05.09.2016

37 klux

Solarstrahlung Anklicken für Monats-Diagramm

---

814 W/m

13:41
05.09.2016

273 W/m

Regenmenge
    September 2016
Anklicken für Monats-Diagramm

Insgesamt 21,7 l/m

in 19:21 Stunden
an 9 Tagen

11,9 l/m

22:14
17.09.2016

Gesamtmenge

21,7 l/m

Regen-Tage
    September 2016
Anklicken für Monats-Diagramm

>   0 mm/Tag

>   2 mm/Tag

>   5 mm/Tag

> 10 mm/Tag

> 20 mm/Tag

9 Tage     
3 Tage     
  1 Tag     
  1 Tag     
0 Tage     

Eisige Tage September 2016 / 2015

Tmin ≤ -10C     

0 Tage

/

0 Tage

Eistage September 2016 / 2015

Tmax <     0C     

0 Tage

/

0 Tage

Frosttage September 2016 / 2015

Tmin ≤     0C     

0 Tage

/

0 Tage

Kalte Tage September 2016 / 2015

Tmax <   10C     

0 Tage

/

0 Tage

Warme Tage September 2016 / 2015

Tmax ≥   20C     

27 Tage

/

13 Tage

Sommertage September 2016 / 2015

Tmax ≥   25C     

16 Tage

/

0 Tage

Heisse Tage September 2016 / 2015

Tmax ≥   30C     

8 Tage

/

0 Tage


Monatsdiagramm September 2016

Die Kurven zeigen den Durchschnittswert des jeweiligen Tages an


Wetter-Monatsübersicht September 2016
Datum
  Temperatur
   Luftdruck
   Wind
  Regen
   Luftfeuchte
   Helligkeit

Sonnen-
schein


Temp.

Min.
Temp.

Max.
Temp.


Luftdruck

Min.
Luftdruck

Max.
Luftdruck

-Geschw.
Haupt-Richtg.

Max.
Wind

Menge /
Dauer


Feuchte

Min.
Feuchte

Max.
Feuchte


Helligkeit

Max.
Helligkeit

1.
September
20,6 C14,3 C
08:04
28,6 C
16:49
1020,9 hPa1019,9 hPa
16:49
1022,5 hPa
08:19
6,0 km/h
NW
24,7 km/h
14:24  
---
61 %39 %
16:59
81 %
08:44
49,1 klux97,4 klux
13:04
11:00 Std 
2.
September
19,4 C11,5 C
07:24
28,8 C
17:29
1020,0 hPa1016,7 hPa
17:29
1022,9 hPa
06:39
4,6 km/h
W-NW
27,8 km/h
12:44  
---
63 %38 %
17:29
84 %
08:29
48,7 klux93,6 klux
12:39
9:40 Std 
3.
September
20,8 C13,6 C
07:39
28,2 C
17:24
1016,9 hPa1013,7 hPa
17:24
1019,5 hPa
07:39
5,3 km/h
W-SW
25,3 km/h
17:24  
---
63 %46 %
14:59
81 %
08:39
41,6 klux91,6 klux
12:39
9:10 Std 
4.
September
18,2 C14,9 C
22:41
21,7 C
14:55
1012,9 hPa1010,3 hPa
14:55
1015,1 hPa
09:40
13,3 km/h
W-SW
43,4 km/h
17:10  
4,6 l/m
4:35 Stunden
72 %59 %
01:20
86 %
11:20
25,1 klux116,0 klux
14:40
2:30 Std 
5.
September
16,3 C13,5 C
23:57
22,3 C
17:01
1018,6 hPa1014,1 hPa
00:26
1024,7 hPa
23:57
12,7 km/h
W
30,8 km/h
04:16  
3,2 l/m
3:25 Stunden
77 %59 %
17:01
91 %
09:51
31 klux119 klux
13:41
3:54 Std 
6.
September
18,1 C9,9 C
07:22
29,3 C
16:27
1025,3 hPa1023,0 hPa
18:02
1027,2 hPa
07:22
1,8 km/h
SO
17,5 km/h
13:02  
---
68 %39 %
16:12
89 %
09:02
48 klux102 klux
13:22
10:20 Std 
7.
September
19,1 C9,2 C
07:27
30,8 C
17:33
1020,3 hPa1014,6 hPa
18:42
1025,9 hPa
01:37
4,3 km/h
SO
24,7 km/h
16:37  
---
64 %37 %
17:12
87 %
09:12
51 klux87 klux
13:37
11:25 Std 
8.
September
20,6 C12,4 C
07:43
30,5 C
16:28
1012,4 hPa1009,4 hPa
16:18
1015,3 hPa
02:08
6,9 km/h
W-SW
32,2 km/h
15:18  
---
66 %42 %
16:33
87 %
08:33
50,3 klux86,4 klux
13:48
11:25 Std 
9.
September
20,1 C14,6 C
07:13
29,0 C
16:08
1016,5 hPa1014,9 hPa
00:03
1018,3 hPa
08:13
1,9 km/h
NW
15,5 km/h
15:08  
---
69 %47 %
16:08
84 %
07:58
37,2 klux93,0 klux
13:28
6:05 Std 
10.
September
21,1 C12,9 C
07:14
31,8 C
16:19
1015,4 hPa1012,3 hPa
16:19
1017,5 hPa
07:14
2,9 km/h
W-SW
20,5 km/h
16:44  
---
66 %37 %
16:19
86 %
08:24
44,7 klux94,4 klux
13:49
9:45 Std 
11.
September
20,5 C12,9 C
08:00
31,1 C
15:40
1017,0 hPa1014,8 hPa
00:00
1018,6 hPa
08:25
2,6 km/h
NW
22,9 km/h
14:50  
---
62 %35 %
13:50
82 %
08:25
44,9 klux91,8 klux
14:05
8:10 Std 
12.
September
22,1 C12,4 C
07:11
33,8 C
15:41
1016,3 hPa1013,2 hPa
18:21
1018,6 hPa
05:21
4,4 km/h
SO
25,4 km/h
12:51  
---
61 %33 %
16:11
82 %
08:06
47,5 klux83,6 klux
13:41
11:10 Std 
13.
September
23,4 C14,4 C
07:36
34,6 C
15:56
1014,0 hPa1010,9 hPa
17:21
1016,3 hPa
07:36
5,6 km/h
SO
25,7 km/h
13:46  
---
59 %31 %
15:26
84 %
08:41
47,9 klux82,9 klux
13:46
11:15 Std 
14.
September
22,6 C13,9 C
07:57
33,2 C
15:27
1012,5 hPa1010,1 hPa
17:42
1014,3 hPa
07:57
5,7 km/h
SO
25,0 km/h
15:07  
---
57 %32 %
15:22
81 %
09:02
45,4 klux88,8 klux
14:47
10:30 Std 
15.
September
21,4 C13,3 C
07:08
31,8 C
16:13
1010,3 hPa1008,1 hPa
16:13
1012,7 hPa
23:59
9,6 km/h
SO
29,0 km/h
18:03  
---
61 %38 %
13:48
80 %
07:38
44,3 klux83,7 klux
13:58
9:15 Std 
16.
September
18,0 C15,4 C
08:39
20,9 C
13:24
1013,3 hPa1011,6 hPa
18:59
1014,9 hPa
10:19
6,2 km/h
W-SW
21,3 km/h
12:59  
---
68 %59 %
17:09
79 %
08:54
22,9 klux103,0 klux
12:24
1:10 Std 
17.
September
15,6 C12,0 C
07:34
20,0 C
15:44
1013,8 hPa1012,6 hPa
16:39
1014,5 hPa
07:45
4,0 km/h
NW
20,2 km/h
15:59  
11,9 l/m
6:01 Stunden
77 %62 %
16:44
89 %
23:35
17 klux43 klux
14:45
--- 
18.
September
16,6 C12,4 C
23:41
23,1 C
17:05
1013,5 hPa1012,2 hPa
17:05
1015,5 hPa
23:41
3,5 km/h
NO
23,0 km/h
13:40  
1,5 l/m
1:45 Stunden
78 %51 %
17:05
90 %
06:45
27,1 klux106,0 klux
13:35
3:24 Std 
19.
September
12,9 C10,7 C
02:11
16,2 C
12:36
1017,8 hPa1015,5 hPa
00:01
1019,7 hPa
23:52
1,8 km/h
NO
20,0 km/h
14:56  
---
25 Minuten
80 %69 %
13:31
85 %
05:21
13 klux34 klux
12:01
--- 
20.
September
14,4 C11,8 C
04:12
18,8 C
13:52
1018,5 hPa1016,9 hPa
15:32
1019,7 hPa
01:57
1,2 km/h
NO
10,7 km/h
14:12  
---
15 Minuten
77 %59 %
13:52
90 %
05:22
22,3 klux82,3 klux
13:07
1:05 Std 
21.
September
13,2 C5,3 C
08:03
22,4 C
16:43
1019,7 hPa1017,5 hPa
16:48
1021,5 hPa
09:08
3,4 km/h
SO
23,0 km/h
15:08  
---
65 %39 %
16:28
86 %
09:08
46,8 klux84,8 klux
11:58
10:40 Std 
22.
September
12,3 C4,5 C
07:44
22,4 C
15:44
1021,7 hPa1019,5 hPa
15:44
1023,6 hPa
08:54
2,5 km/h
SO
18,6 km/h
15:44  
---
67 %42 %
15:29
86 %
09:34
32,0 klux96,3 klux
14:54
5:35 Std 
23.
September
14,3 C7,4 C
07:35
23,8 C
16:30
1024,0 hPa1022,1 hPa
00:55
1026,0 hPa
23:55
3,1 km/h
NW
16,6 km/h
16:25  
---
68 %45 %
17:05
84 %
09:25
38,3 klux88,9 klux
13:50
8:25 Std 
24.
September
15,0 C6,8 C
07:35
26,4 C
16:05
1024,4 hPa1021,2 hPa
16:45
1027,2 hPa
01:10
4,3 km/h
SO
23,1 km/h
17:00  
---
66 %35 %
16:45
87 %
09:45
45,4 klux83,4 klux
15:10
10:35 Std 
25.
September
16,2 C7,7 C
07:36
26,7 C
16:11
1019,0 hPa1015,9 hPa
16:11
1022,1 hPa
00:56
5,8 km/h
W-SW
28,0 km/h
11:56  
---
67 %43 %
14:41
84 %
09:36
44,8 klux76,3 klux
13:36
10:25 Std 
26.
September
15,7 C12,9 C
06:52
21,3 C
17:32
1022,2 hPa1020,2 hPa
00:02
1023,6 hPa
22:53
3,8 km/h
W-NW
14,5 km/h
12:42  
---
5 Minuten
73 %60 %
17:27
81 %
08:17
25,1 klux93,7 klux
12:27
2:39 Std 
27.
September
16,1 C11,8 C
23:54
24,1 C
16:33
1025,0 hPa1022,6 hPa
00:03
1028,0 hPa
23:49
2,2 km/h
SO
13,8 km/h
13:23  
0,2 l/m
40 Minuten
73 %50 %
16:13
88 %
09:18
35,2 klux92,3 klux
11:58
5:55 Std 
28.
September
15,2 C10,0 C
03:44
20,8 C
16:29
1026,1 hPa1023,9 hPa
16:54
1028,1 hPa
00:14
11,8 km/h
W-SW
45,4 km/h
14:24  
---
71 %51 %
11:54
87 %
07:34
30,0 klux94,2 klux
11:34
5:40 Std 
29.
September
18,6 C11,9 C
07:55
27,3 C
15:55
1018,5 hPa1012,9 hPa
16:55
1024,5 hPa
00:00
13,2 km/h
W-SW
40,5 km/h
17:25  
---
67 %42 %
15:55
87 %
08:15
40,7 klux78,9 klux
12:30
8:05 Std 
30.
September
14,6 C10,9 C
23:57
17,6 C
00:01
1014,7 hPa1013,9 hPa
00:46
1015,7 hPa
22:27
4,7 km/h
W-SW
21,3 km/h
11:06  
0,5 l/m
2:10 Stunden
76 %68 %
00:06
84 %
23:07
11,5 klux47,6 klux
16:51
20 Min 



September
2016

Temperatur

  

Luftdruck

  

Wind

  

Regen

  

Luftfeuchte

  

Helligkeit

Sonnen-
schein

Min

Max

Min

Max

Max

Max

Min

Max

Max

Max

17,8 C

4,5 C

07:44 Uhr
22.09.2016

34,6 C

15:56 Uhr
13.09.2016

1018,0 hPa

1008,1 hPa

16:13 Uhr
15.09.2016

1028,1 hPa

00:14 Uhr
28.09.2016

5,3 km/h

W-SW

45,4 km/h

14:24 Uhr
28.09.2016

11,9 l/m

6:01 Stunden
17.09.2016

68 %

31 %

15:26 Uhr
13.09.2016

91 %

09:51 Uhr
05.09.2016

36,9 klux

119,0 klux

13:41 Uhr
05.09.2016

11:25 Std

am
07.09.2016

Gesamt

Gesamt

21,7 l/m

9 Tage
19:21 h

209:32 Std


Wetter-Diagramme September 2016     Heinzenberg / Taunus   
TemperaturLuftfeuchte
SolarstrahlungLuftdruck
HelligkeitSonnenschein
RegenmengeRegendauer
Wind-GeschwindigkeitWind-Richtung